Weather History for Farnborough, United Kingdom

Change the Weather History Date:

Tuesday, December 11, 2012

  Actual Average (EGLL) Record (EGLL)
Temperature  
Mean Temperature 28 °F -  
Max Temperature 34 °F 46 °F 57 °F (1997)
Min Temperature 23 °F 37 °F 26 °F (2005)
Degree Days  
Heating Degree Days 36    
Moisture  
Dew Point 29 °F    
Average Humidity 97    
Maximum Humidity 100    
Minimum Humidity 90    
Precipitation  
Precipitation 0.01 in - - ()
Sea Level Pressure  
Sea Level Pressure 30.41 in    
Wind  
Wind Speed 3 mph ()    
Max Wind Speed 6 mph    
Max Gust Speed -    
Visibility 1.7 miles    
Events Fog    
Averages and records for this station are not official NWS values.
T = Trace of Precipitation, MM = Missing Value Source: Averaged Metar Reports

Daily Weather History Graph

Daily Weather History Graph

Search for Another Location

Airport:

Trip Planner

Search our weather history database for the weather conditions in past years. The results will help you decide how hot, cold, wet, or windy it might be!

Date:

Astronomy

Dec. 11, 2012 Rise Set
Actual Time 7:57 AM GMT 3:55 PM GMT
Civil Twilight 7:18 AM GMT 4:34 PM GMT
Nautical Twilight 6:35 AM GMT 5:17 PM GMT
Astronomical Twilight 5:54 AM GMT 5:57 PM GMT
Moon 5:26 AM GMT (12/11) 2:27 PM GMT (12/11)
Length of Visible Light 9h 16m
Length of Day
7h 57m
Waning Crescent, 5% of the Moon is Illuminated
Dec 11
Waning Crescent
Dec 13
New
Dec 20
First Quarter
Dec 28
Full
Jan 5
Last Quarter

Hourly Weather History & Observations

Time (GMT) Temp. Windchill Dew Point Humidity Pressure Visibility Wind Dir Wind Speed Gust Speed Precip Events Conditions
2:50 AM 25 °F - 24 °F 92% 30.40 in 4 mi West 2.3 mph - -  
5:50 AM 27 °F - 26 °F 95% 30.42 in 3 mi NNW 3.5 mph - -   Partly Cloudy
6:50 AM 26.6 °F 22.6 °F 26.6 °F 100% 30.42 in 2.5 mi WSW 3.5 mph - N/A   Scattered Clouds
7:20 AM 24.8 °F - 24.8 °F 100% 30.42 in 2.5 mi West 2.3 mph - N/A   Mist
7:50 AM 23.0 °F 18.4 °F 23.0 °F 100% 30.42 in 2.5 mi WSW 3.5 mph - N/A   Mist
8:20 AM 24.8 °F 19.1 °F 24.8 °F 100% 30.42 in 2.5 mi WSW 4.6 mph - N/A   Mist
8:50 AM 26 °F - 24 °F 91% 30.45 in 3 mi SW 4.6 mph - -   Partly Cloudy
8:50 AM 24.8 °F 19.1 °F 24.8 °F 100% 30.42 in 2.5 mi SSW 4.6 mph - N/A   Partly Cloudy
9:20 AM 28.4 °F 24.6 °F 28.4 °F 100% 30.45 in 2.5 mi WSW 3.5 mph - N/A   Partly Cloudy
9:50 AM 30.2 °F 25.4 °F 30.2 °F 100% 30.45 in 1.9 mi West 4.6 mph - N/A   Partly Cloudy
10:20 AM 30.2 °F 25.4 °F 30.2 °F 100% 30.45 in 2.5 mi WNW 4.6 mph - N/A   Partly Cloudy
10:50 AM 30.2 °F 26.7 °F 30.2 °F 100% 30.45 in 2.5 mi Variable 3.5 mph - N/A   Scattered Clouds
11:20 AM 32.0 °F 28.7 °F 32.0 °F 100% 30.45 in 3.1 mi Variable 3.5 mph - N/A   Scattered Clouds
11:50 AM 33 °F - 31 °F 90% 30.45 in 3 mi NNW 4.6 mph - -   Partly Cloudy
11:50 AM 32.0 °F 28.7 °F 32.0 °F 100% 30.42 in 3.1 mi Variable 3.5 mph - N/A   Scattered Clouds
12:20 PM 32.0 °F 27.5 °F 32.0 °F 100% 30.42 in 2.2 mi West 4.6 mph - N/A   Scattered Clouds
12:50 PM 33.8 °F - 32.0 °F 93% 30.42 in 3.1 mi Variable 2.3 mph - N/A   Scattered Clouds
1:20 PM 33.8 °F 30.8 °F 33.8 °F 100% 30.42 in 3.1 mi Variable 3.5 mph - N/A   Scattered Clouds
1:50 PM 33.8 °F 28.6 °F 32.0 °F 93% 30.42 in 3.1 mi SW 5.8 mph - N/A   Partly Cloudy
2:20 PM 33.8 °F 30.8 °F 32.0 °F 93% 30.39 in 2.5 mi Variable 3.5 mph - N/A   Partly Cloudy
2:50 PM 33 °F - 31 °F 90% 30.41 in 3 mi West 2.3 mph - -  
2:50 PM 33.8 °F - 32.0 °F 93% 30.39 in 2.5 mi Variable 2.3 mph - N/A   Partly Cloudy
3:20 PM 32.0 °F 27.5 °F 32.0 °F 100% 30.39 in 1.2 mi West 4.6 mph - N/A   Partly Cloudy
3:50 PM 30.2 °F 25.4 °F 30.2 °F 100% 30.39 in 0.1 mi West 4.6 mph - N/A Fog Light Freezing Fog
4:20 PM 30.2 °F 26.7 °F 30.2 °F 100% 30.39 in 0.1 mi Variable 3.5 mph - N/A Fog Light Freezing Fog
4:50 PM 30.2 °F 26.7 °F 28.4 °F 93% 30.39 in 0.1 mi Variable 3.5 mph - N/A Fog Light Freezing Fog
5:20 PM 30.2 °F 25.4 °F 28.4 °F 93% 30.39 in 0.1 mi NW 4.6 mph - N/A Fog Light Freezing Fog
5:50 PM 29 °F - 28 °F 96% 30.41 in 0 mi WNW 3.5 mph - -  
5:50 PM 28.4 °F 24.6 °F 28.4 °F 100% 30.39 in 0.1 mi Variable 3.5 mph - N/A Fog Light Freezing Fog
6:20 PM 28.4 °F - 28.4 °F 100% 30.39 in 0.1 mi Variable 2.3 mph - N/A Fog Light Freezing Fog
6:50 PM 28.4 °F 24.6 °F 28.4 °F 100% 30.39 in 0.1 mi Variable 3.5 mph - N/A Fog Light Freezing Fog
7:20 PM 28.4 °F 23.3 °F 28.4 °F 100% 30.36 in 0.1 mi West 4.6 mph - N/A Fog Light Freezing Fog
7:50 PM 28.4 °F 24.6 °F 28.4 °F 100% 30.36 in 0.1 mi Variable 3.5 mph - N/A Fog Light Freezing Fog
8:20 PM 28.4 °F - 28.4 °F 100% 30.36 in 0.1 mi Variable 2.3 mph - N/A Fog Light Freezing Fog
8:50 PM 27 °F - 26 °F 97% 30.39 in 0 mi NW 2.3 mph - -  
8:50 PM 26.6 °F 22.6 °F 26.6 °F 100% 30.36 in 0.1 mi NW 3.5 mph - N/A   Unknown
11:50 PM 26 °F - 25 °F 95% 30.35 in 0 mi Calm Calm - -